Content
SEND FEEDBACK

Daily
Averages
Monthly
Summary
Mexico

PUERTO MORELOS, QUINTANA ROO


Home > North America > Mexico > Quintana Roo
Elevation: 20 feet     Latitude: 20 51N     Longitude: 086 52W

WEATHER
 
SELECT A DAY
Number of Records: 163,654;   Date Range: 1/1/95 - 7/20/14
 
SHARE

PRINT THIS DATA

[ ← Previous Day ]
WEATHER ALMANAC - MARCH 21, 2014
[ Next Day → ]
[ °C ]   °F
Weather ElementAverageHighLow
Temperature78.5 °F82.4 °F (8:40 am)73.4 °F (5:45 am)
Dewpoint71.8 °F73.4 °F (1:41 pm)71.6 °F (1:40 am)
Humidity80.3 %94 % (5:45 am)70 % (8:40 am)
Barometer30.00 in30.06 in (9:41 am)29.95 in (2:43 am)
Wind Speed6.7 mph10.4 mph (11:41 am)
Weather ElementAverage
Visibility7 mi
Wind DirectionE (92.2 °)

Weather ElementTotal
Precipitation---
Cooling Degree Days12.9 (Base 65)
Growing Degree Days27.9 (Base 50)
Averaged from 23 records on March 21, 2014
WEATHER CONDITIONS BREAKOUT
WIND DIRECTION BREAKOUT
WEATHER BY HOUR - MARCH 21, 2014
[ °C ]   °F
Local TimeTemperatureDewpointHumidityBarometerVisibilityWind DirectionWind SpeedGust SpeedPrecipitationEventsConditions
1:40 AM75.2 °F71.6 °F89 %30.00 in7.0 miENE (70°)3.5 mphScattered Clouds
2:43 AM75.2 °F71.6 °F89 %29.95 in7.0 miENE (60°)3.5 mphScattered Clouds
3:42 AM75.2 °F71.6 °F89 %29.98 in7.0 miENE (70°)3.5 mphScattered Clouds
4:42 AM75.2 °F71.6 °F89 %29.98 in7.0 miENE (60°)3.5 mphScattered Clouds
5:45 AM73.4 °F71.6 °F94 %29.97 in7.0 miENE (60°)2.3 mphScattered Clouds
6:47 AM77.0 °F71.6 °F83 %30.01 in7.0 miENE (70°)3.5 mphScattered Clouds
7:43 AM80.6 °F71.6 °F74 %30.03 in7.0 miENE (70°)5.8 mphScattered Clouds
8:40 AM82.4 °F71.6 °F70 %30.02 in7.0 miEast (90°)8.1 mphMostly Cloudy
9:41 AM82.4 °F71.6 °F70 %30.06 in7.0 miESE (110°)8.1 mphMostly Cloudy
10:40 AM82.4 °F71.6 °F70 %30.05 in7.0 miEast (90°)6.9 mphScattered Clouds
11:41 AM80.6 °F71.6 °F74 %30.02 in7.0 miEast (90°)10.4 mphScattered Clouds
12:42 PM80.6 °F71.6 °F74 %30.02 in7.0 miEast (90°)9.2 mphMostly Cloudy
1:41 PM80.6 °F73.4 °F79 %30.00 in7.0 miEast (90°)8.1 mphMostly Cloudy
2:44 PM80.6 °F71.6 °F74 %29.96 in7.0 miEast (90°)8.1 mphMostly Cloudy
3:41 PM80.6 °F73.4 °F79 %29.98 in7.0 miEast (100°)8.1 mphMostly Cloudy
4:40 PM80.6 °F71.6 °F74 %29.98 in7.0 miESE (110°)9.2 mphMostly Cloudy
5:46 PM78.8 °F73.4 °F83 %29.97 in7.0 miEast (100°)6.9 mphScattered Clouds
6:41 PM78.8 °F71.6 °F78 %30.00 in7.0 miESE (110°)6.9 mphScattered Clouds
7:42 PM77.0 °F71.6 °F83 %30.02 in7.0 miESE (110°)6.9 mphScattered Clouds
8:42 PM77.0 °F71.6 °F83 %30.00 in7.0 miESE (120°)8.1 mphScattered Clouds
9:49 PM77.0 °F71.6 °F83 %30.03 in7.0 miESE (120°)8.1 mphScattered Clouds
10:47 PM77.0 °F71.6 °F83 %30.03 in7.0 miESE (120°)8.1 mphPartly Cloudy
11:46 PM77.0 °F71.6 °F83 %29.98 in7.0 miESE (120°)6.9 mphClear
Hourly data recorded from MMUN, located miles away from Puerto Morelos, Quintana Roo







STORIES FROM OUR PARTNERS